EJU5367 EDDB-LCLK

Flight info

Callsign EJU5367
Flight time N/A
Altitude 35000
Route ARSAP3Q ARSAP DCT OLUMA DCT KULUV DCT MAKAL DCT PARAK DCT OBLAK DCT NISVA DCT DOTAM DCT NIKTI DCT STINO DCT AKINA DCT LINRO UL52 VAXOS UM978 TOSKA DCT BONEK
Aircraft A320/M-SDE2E3FGHIJ1RWXYZ/LB1

Departure

Time 2026-05-07 11:29
Airport Berlin Brandenburg Airport (EDDB)

Arrival

Time N/A
Airport Larnaca International Airport (LCLK)
Time Latitude Longitude Altitude Speed Heading
2026-05-07 11:12 52.36185 13.51543 155 ft 0 kts 339°
2026-05-07 11:16 52.36174 13.51550 155 ft 4 kts 339°
2026-05-07 11:16 52.36155 13.51562 154 ft 3 kts 339°
2026-05-07 11:16 52.36131 13.51577 155 ft 4 kts 333°
2026-05-07 11:17 52.36111 13.51602 156 ft 4 kts 291°
2026-05-07 11:17 52.36110 13.51643 155 ft 4 kts 249°
2026-05-07 11:17 52.36121 13.51683 155 ft 3 kts 247°
2026-05-07 11:17 52.36123 13.51689 155 ft 0 kts 249°
2026-05-07 11:22 52.36110 13.51635 155 ft 14 kts 249°
2026-05-07 11:23 52.36072 13.51457 155 ft 16 kts 249°
2026-05-07 11:23 52.36030 13.51298 155 ft 14 kts 249°
2026-05-07 11:23 52.35998 13.51160 155 ft 12 kts 249°
2026-05-07 11:23 52.35969 13.51033 156 ft 13 kts 247°
2026-05-07 11:24 52.35917 13.50828 153 ft 23 kts 251°
2026-05-07 11:24 52.35848 13.50637 150 ft 14 kts 189°
2026-05-07 11:24 52.35762 13.50576 148 ft 20 kts 240°
2026-05-07 11:24 52.35693 13.50289 148 ft 32 kts 249°
2026-05-07 11:25 52.35614 13.49946 148 ft 33 kts 249°
2026-05-07 11:25 52.35530 13.49599 148 ft 33 kts 249°
2026-05-07 11:25 52.35448 13.49245 148 ft 34 kts 249°
2026-05-07 11:25 52.35357 13.48888 148 ft 34 kts 249°
2026-05-07 11:26 52.35278 13.48541 148 ft 24 kts 246°
2026-05-07 11:26 52.35171 13.48460 149 ft 15 kts 227°
2026-05-07 11:26 52.35109 13.48239 149 ft 31 kts 249°
2026-05-07 11:26 52.35054 13.48013 150 ft 33 kts 249°
2026-05-07 11:27 52.34975 13.47662 150 ft 33 kts 248°
2026-05-07 11:27 52.34890 13.47309 151 ft 34 kts 248°
2026-05-07 11:27 52.34801 13.46954 152 ft 34 kts 248°
2026-05-07 11:27 52.34726 13.46786 154 ft 14 kts 178°
2026-05-07 11:28 52.34650 13.46810 157 ft 9 kts 158°
2026-05-07 11:28 52.34591 13.46848 159 ft 10 kts 158°
2026-05-07 11:28 52.34562 13.46916 160 ft 8 kts 88°
2026-05-07 11:28 52.34636 13.47235 158 ft 63 kts 68°
2026-05-07 11:29 52.34870 13.48219 160 ft 121 kts 69°
2026-05-07 11:29 52.35234 13.49755 179 ft 164 kts 67°
2026-05-07 11:29 52.35654 13.51437 965 ft 153 kts 68°
2026-05-07 11:29 52.35707 13.53134 1701 ft 154 kts 107°
2026-05-07 11:30 52.35068 13.54530 2249 ft 154 kts 136°
2026-05-07 11:30 52.34257 13.55637 2769 ft 152 kts 137°
2026-05-07 11:30 52.33454 13.56724 3223 ft 149 kts 137°
2026-05-07 11:30 52.32626 13.57935 3372 ft 170 kts 135°
2026-05-07 11:31 52.31695 13.59368 3483 ft 199 kts 133°
2026-05-07 11:31 52.30945 13.61339 3800 ft 214 kts 103°
2026-05-07 11:31 52.30989 13.63851 4073 ft 234 kts 72°
2026-05-07 11:31 52.31454 13.66539 4456 ft 258 kts 82°
2026-05-07 11:32 52.31135 13.72596 5870 ft 275 kts 97°
2026-05-07 11:32 52.30885 13.75673 6629 ft 279 kts 98°
2026-05-07 11:32 52.30622 13.78844 7368 ft 284 kts 98°
2026-05-07 11:33 52.30355 13.82067 8122 ft 288 kts 98°
2026-05-07 11:33 52.30088 13.85331 8886 ft 292 kts 98°
2026-05-07 11:33 52.29817 13.88642 9660 ft 296 kts 98°
2026-05-07 11:33 52.29542 13.91997 10284 ft 305 kts 98°
2026-05-07 11:34 52.29252 13.95560 10476 ft 328 kts 98°
2026-05-07 11:34 52.28942 13.99342 10860 ft 341 kts 98°
2026-05-07 11:34 52.28624 14.03214 11491 ft 346 kts 99°
2026-05-07 11:34 52.28300 14.07137 12177 ft 350 kts 99°
2026-05-07 11:35 52.27972 14.11096 12865 ft 354 kts 99°
2026-05-07 11:35 52.27638 14.15100 13541 ft 358 kts 99°
2026-05-07 11:35 52.27299 14.19149 14147 ft 362 kts 100°
2026-05-07 11:35 52.26956 14.23233 14732 ft 365 kts 100°
2026-05-07 11:36 52.26607 14.27354 15320 ft 368 kts 100°
2026-05-07 11:36 52.26254 14.31513 15909 ft 371 kts 100°
2026-05-07 11:36 52.25896 14.35707 16491 ft 375 kts 100°
2026-05-07 11:36 52.25535 14.39934 17082 ft 378 kts 100°
2026-05-07 11:37 52.25169 14.44199 17680 ft 381 kts 100°
2026-05-07 11:37 52.24799 14.48494 18287 ft 384 kts 101°
2026-05-07 11:37 52.24424 14.52821 18828 ft 386 kts 101°
2026-05-07 11:37 52.24043 14.57172 19350 ft 389 kts 101°
2026-05-07 11:38 52.23658 14.61554 19871 ft 391 kts 101°
2026-05-07 11:38 52.23271 14.65955 20400 ft 393 kts 101°
2026-05-07 11:38 52.22757 14.70333 20922 ft 394 kts 108°
2026-05-07 11:38 52.21806 14.74505 21421 ft 393 kts 119°
2026-05-07 11:39 52.20580 14.78428 21928 ft 394 kts 120°
2026-05-07 11:39 52.19326 14.82416 22448 ft 397 kts 120°
2026-05-07 11:39 52.18066 14.86432 22948 ft 399 kts 120°
2026-05-07 11:39 52.16805 14.90474 23431 ft 402 kts 120°
2026-05-07 11:40 52.15532 14.94546 23841 ft 404 kts 120°
2026-05-07 11:40 52.14250 14.98627 24245 ft 406 kts 120°
2026-05-07 11:40 52.12960 15.02732 24620 ft 409 kts 120°
2026-05-07 11:40 52.11662 15.06860 24997 ft 411 kts 121°
2026-05-07 11:41 52.10356 15.11002 25362 ft 413 kts 121°
2026-05-07 11:41 52.09036 15.15168 25723 ft 415 kts 121°
2026-05-07 11:41 52.07709 15.19349 26073 ft 417 kts 121°
2026-05-07 11:41 52.06376 15.23547 26419 ft 419 kts 122°
2026-05-07 11:42 52.05034 15.27763 26764 ft 421 kts 122°
2026-05-07 11:42 52.03684 15.31996 27107 ft 423 kts 122°
2026-05-07 11:42 52.02329 15.36246 27438 ft 425 kts 122°
2026-05-07 11:42 52.00966 15.40515 27767 ft 427 kts 122°
2026-05-07 11:43 51.99593 15.44803 28091 ft 429 kts 123°
2026-05-07 11:43 51.98214 15.49101 28416 ft 430 kts 123°
2026-05-07 11:43 51.96829 15.53412 28725 ft 432 kts 123°
2026-05-07 11:43 51.95439 15.57739 29022 ft 434 kts 123°
2026-05-07 11:44 51.94058 15.62025 29320 ft 435 kts 123°
2026-05-07 11:44 51.92650 15.66376 29621 ft 437 kts 124°
2026-05-07 11:44 51.91233 15.70742 29904 ft 439 kts 124°
2026-05-07 11:44 51.89799 15.75112 30188 ft 439 kts 127°
2026-05-07 11:45 51.88143 15.79224 30418 ft 436 kts 131°
2026-05-07 11:45 51.86427 15.83277 30628 ft 437 kts 131°
2026-05-07 11:45 51.84701 15.87340 30831 ft 439 kts 131°
2026-05-07 11:45 51.82973 15.91407 31094 ft 439 kts 131°
2026-05-07 11:46 51.81247 15.95473 31378 ft 438 kts 131°
2026-05-07 11:46 51.79527 15.99531 31664 ft 438 kts 131°
2026-05-07 11:46 51.77805 16.03584 31948 ft 437 kts 131°
2026-05-07 11:46 51.76083 16.07626 32223 ft 437 kts 131°
2026-05-07 11:47 51.74358 16.11655 32492 ft 436 kts 131°
2026-05-07 11:47 51.72634 16.15677 32781 ft 436 kts 131°
2026-05-07 11:47 51.70910 16.19694 33059 ft 435 kts 131°
2026-05-07 11:47 51.69180 16.23709 33335 ft 435 kts 131°
2026-05-07 11:48 51.67452 16.27711 33640 ft 435 kts 131°
2026-05-07 11:48 51.65558 16.31442 33918 ft 427 kts 141°
2026-05-07 11:48 51.63357 16.34567 34153 ft 419 kts 150°
2026-05-07 11:48 51.60908 16.37034 34365 ft 412 kts 158°
2026-05-07 11:49 51.58336 16.39077 34565 ft 412 kts 159°
2026-05-07 11:49 51.55769 16.41121 34760 ft 413 kts 159°
2026-05-07 11:49 51.53198 16.43182 34932 ft 413 kts 159°
2026-05-07 11:50 51.48089 16.47297 34985 ft 408 kts 158°